Date String (YYYY-MM-DD hh:mm:ss) UTC,Instrument flags,Ambient pressure (hPa),Sample flow (lpm),Bypass flow (lpm),Sample temperature (°C),Ambient temperature (°C),ASC tube jacket temperature (°C),LED temperature (°C),Box temperature (°C),Sample RH (%),Span deviation,Mass concentration (μg/m³),Mass concentration (μg/m³),Mass concentration (μg/m³)
DateTimeUTC,F1_M11,P_M11,Q1_M11,Q2_M11,T1_M11,T2_M11,T3_M11,T4_M11,T5_M11,U1_M11,ZSPAN_M11,X0_M11,X2_M11,X1_M11
2021-09-29 11:00:00,,0820.8,5.02,0.00,30.0,28.6,00.0,39.2,31.7,19.5,0002.6,0009.32,0004.66,0004.17
2021-09-29 11:01:00,,0820.8,4.99,0.00,30.0,28.7,00.0,39.2,31.7,19.5,0002.8,0009.29,0004.65,0004.16
2021-09-29 11:02:00,,0820.8,5.01,0.00,30.0,28.8,00.0,39.2,31.7,19.4,0002.7,0009.21,0004.63,0004.16
2021-09-29 11:03:00,,0820.9,5.00,0.00,30.0,28.9,00.0,39.2,31.8,19.4,0002.9,0008.92,0004.64,0004.16
2021-09-29 11:04:00,,0820.8,4.99,0.00,30.0,28.9,00.0,39.2,31.8,19.4,0002.6,0008.92,0004.62,0004.15
2021-09-29 11:05:00,,0820.9,4.99,0.00,30.1,29.0,00.0,39.2,31.8,19.4,0002.6,0009.22,0004.63,0004.16
2021-09-29 11:06:00,,0820.9,5.00,0.00,30.1,29.0,00.0,39.2,31.8,19.4,0002.3,0009.64,0004.65,0004.16
2021-09-29 11:07:00,,0820.9,4.99,0.00,30.1,29.1,00.0,39.2,31.8,19.4,0001.8,0009.64,0004.66,0004.16
2021-09-29 11:08:00,,0820.9,5.01,0.00,30.1,29.1,00.0,39.2,31.9,19.4,0001.3,0009.63,0004.66,0004.17
2021-09-29 11:09:00,,0820.9,5.00,0.00,30.2,29.1,00.0,39.2,31.9,19.3,0001.0,0009.32,0004.67,0004.17
2021-09-29 11:10:00,,0820.9,5.00,0.00,30.2,29.2,00.0,39.2,31.9,19.3,0000.9,0009.32,0004.65,0004.18
2021-09-29 11:11:00,,0820.9,5.01,0.00,30.2,29.2,00.0,39.3,31.9,19.3,0001.3,0009.97,0004.65,0004.17
2021-09-29 11:12:00,,0821.0,5.00,0.00,30.2,29.3,00.0,39.3,32.0,19.3,0001.3,0010.22,0004.67,0004.18
2021-09-29 11:13:00,,0820.9,5.00,0.00,30.2,29.3,00.0,39.3,32.0,19.3,0001.6,0010.22,0004.67,0004.19
2021-09-29 11:14:00,,0820.9,5.01,0.00,30.2,29.3,00.0,39.3,32.0,19.2,0001.7,0010.09,0004.64,0004.20
2021-09-29 11:15:00,,0820.9,5.00,0.00,30.3,29.4,00.0,39.3,32.0,19.2,0001.8,0010.03,0004.63,0004.20
2021-09-29 11:16:00,,0820.9,4.99,0.00,30.3,29.4,00.0,39.3,32.0,19.2,0002.1,0009.56,0004.61,0004.20
2021-09-29 11:17:00,,0820.9,5.00,0.00,30.3,29.4,00.0,39.3,32.1,19.2,0002.3,0009.15,0004.64,0004.21
2021-09-29 11:18:00,,0820.9,4.99,0.00,30.3,29.4,00.0,39.3,32.1,19.2,0002.5,0009.04,0004.61,0004.20
2021-09-29 11:19:00,,0820.9,5.00,0.00,30.3,29.5,00.0,39.4,32.1,19.2,0002.8,0008.91,0004.58,0004.21
2021-09-29 11:20:00,,0821.0,4.99,0.00,30.4,29.5,00.0,39.4,32.1,19.1,0003.0,0008.80,0004.57,0004.22
2021-09-29 11:21:00,,0820.9,5.02,0.00,30.4,29.5,00.0,39.4,32.1,19.1,0003.0,0008.64,0004.60,0004.22
2021-09-29 11:22:00,,0820.9,4.99,0.00,30.4,29.5,00.0,39.4,32.1,19.1,0002.4,0008.38,0004.61,0004.23
2021-09-29 11:23:00,,0820.9,5.00,0.00,30.4,29.5,00.0,39.4,32.2,19.1,0002.2,0008.04,0004.59,0004.22
2021-09-29 11:24:00,,0820.9,5.00,0.00,30.4,29.6,00.0,39.4,32.2,19.0,0001.6,0008.11,0004.63,0004.22
2021-09-29 11:25:00,,0820.9,5.01,0.00,30.4,29.6,00.0,39.5,32.2,19.0,0001.4,0008.14,0004.64,0004.21
2021-09-29 11:26:00,,0820.9,4.99,0.00,30.4,29.6,00.0,39.5,32.2,19.0,0001.2,0008.44,0004.66,0004.21
2021-09-29 11:27:00,,0821.0,5.01,0.00,30.5,29.6,00.0,39.5,32.2,19.0,0000.9,0009.63,0004.71,0004.22
2021-09-29 11:28:00,,0820.9,4.99,0.00,30.5,29.6,00.0,39.5,32.3,19.0,0000.5,0009.98,0004.69,0004.22
2021-09-29 11:29:00,,0820.9,4.99,0.00,30.5,28.6,00.0,39.5,32.0,19.0,0000.7,0010.25,0004.74,0004.23
2021-09-29 11:30:00,,0820.9,5.00,0.00,30.3,26.8,00.0,39.5,31.5,19.2,0000.8,0011.52,0004.79,0004.23
2021-09-29 11:31:00,,0821.0,5.00,0.00,30.2,26.6,00.0,39.4,31.4,19.3,0000.8,0011.78,0004.80,0004.21
2021-09-29 11:32:00,,0821.0,5.01,0.00,30.1,26.9,00.0,39.4,31.4,19.4,0000.7,0012.03,0004.81,0004.21
2021-09-29 11:33:00,,0821.0,5.00,0.00,30.0,27.3,00.0,39.3,31.5,19.6,0001.1,0011.84,0004.80,0004.21
2021-09-29 11:34:00,,0820.9,5.01,0.00,30.0,27.6,00.0,39.3,31.5,19.7,0001.1,0012.09,0004.80,0004.21
2021-09-29 11:35:00,,0821.0,4.99,0.00,30.0,27.9,00.0,39.3,31.6,19.7,0001.2,0012.25,0004.81,0004.21
2021-09-29 11:36:00,,0821.0,5.01,0.00,30.0,28.1,00.0,39.2,31.7,19.7,0001.5,0012.33,0004.83,0004.21
2021-09-29 11:37:00,,0821.0,4.99,0.00,30.0,28.3,00.0,39.2,31.7,19.8,0001.8,0012.02,0004.82,0004.20
2021-09-29 11:38:00,,0821.0,5.01,0.00,30.0,28.5,00.0,39.2,31.7,19.8,0001.8,0010.78,0004.76,0004.20
2021-09-29 11:39:00,,0821.0,5.00,0.00,30.0,28.6,00.0,39.2,31.7,19.9,0002.3,0010.99,0004.77,0004.19
2021-09-29 11:40:00,,0821.1,5.00,0.00,30.0,28.6,00.0,39.2,31.7,19.8,0002.3,0010.84,0004.75,0004.18
2021-09-29 11:41:00,,0821.0,5.00,0.00,30.0,28.7,00.0,39.2,31.8,19.8,0002.1,0009.67,0004.71,0004.17
2021-09-29 11:42:00,,0821.0,5.01,0.00,30.0,28.8,00.0,39.2,31.7,19.7,0001.9,0009.46,0004.70,0004.16
2021-09-29 11:43:00,,0821.0,4.99,0.00,30.0,28.9,00.0,39.2,31.8,19.8,0001.9,0009.30,0004.67,0004.15
2021-09-29 11:44:00,,0821.1,4.99,0.00,30.0,29.0,00.0,39.2,31.8,19.7,0001.4,0009.52,0004.67,0004.13
2021-09-29 11:45:00,,0821.0,5.01,0.00,30.0,29.0,00.0,39.2,31.8,19.6,0001.2,0009.88,0004.67,0004.12
2021-09-29 11:46:00,,0821.0,5.00,0.00,30.1,29.0,00.0,39.2,31.8,19.6,0001.4,0010.28,0004.65,0004.10
2021-09-29 11:47:00,,0821.0,5.00,0.00,30.1,29.1,00.0,39.2,31.8,19.6,0001.3,0011.31,0004.60,0004.07
2021-09-29 11:48:00,,0821.1,5.00,0.00,30.1,29.1,00.0,39.2,31.9,19.7,0000.8,0011.60,0004.58,0004.04
2021-09-29 11:49:00,,0821.0,4.99,0.00,30.1,29.1,00.0,39.2,31.9,19.5,0000.9,0012.55,0004.57,0004.02
2021-09-29 11:50:00,,0821.1,5.02,0.00,30.1,29.1,00.0,39.2,31.9,19.5,0000.8,0012.62,0004.52,0003.99
2021-09-29 11:51:00,,0821.2,4.99,0.00,30.2,29.2,00.0,39.2,31.9,19.5,0000.9,0012.61,0004.51,0003.98
2021-09-29 11:52:00,,0821.1,5.01,0.00,30.2,29.2,00.0,39.2,31.9,19.5,0000.6,0012.74,0004.50,0003.97
2021-09-29 11:53:00,,0821.1,5.00,0.00,30.2,29.2,00.0,39.3,31.9,19.5,0000.9,0012.73,0004.47,0003.94
2021-09-29 11:54:00,,0821.2,5.00,0.00,30.2,29.2,00.0,39.3,32.0,19.5,0000.7,0012.69,0004.46,0003.92
2021-09-29 11:55:00,,0821.1,5.02,0.00,30.2,29.2,00.0,39.3,32.0,19.5,0001.2,0012.32,0004.44,0003.91
2021-09-29 11:56:00,,0821.2,5.00,0.00,30.2,29.2,00.0,39.3,32.0,19.4,0001.3,0012.10,0004.40,0003.90
2021-09-29 11:57:00,,0821.1,4.98,0.00,30.2,29.2,00.0,39.3,32.0,19.3,0001.3,0011.90,0004.37,0003.89
2021-09-29 11:58:00,,0821.1,5.01,0.00,30.3,29.2,00.0,39.3,32.0,19.2,0001.3,0010.90,0004.37,0003.87
2021-09-29 11:59:00,,0821.1,4.99,0.00,30.3,29.3,00.0,39.3,32.0,19.1,0001.5,0010.74,0004.35,0003.87
